Location: Caltech
(34.1382°N, 118.1253°W)
Time: 08:54:28
(UTC-07:00)

Tiros 1 despin weight - All Passes

Search period start: 01 August 2014 00:00
Search period end: 11 August 2014 00:00
Orbit: 602 x 653 km, 48.2° (Epoch: 01 August)

Date Brightness Start Highest point End Pass type
(mag) Time Alt. Az. Time Alt. Az. Time Alt. Az.
01 Aug - 00:00:00 43° W 00:01:03 54° SW 00:05:22 10° SE night (unlit)
01 Aug - 15:43:40 10° SW 15:48:14 55° SE 15:52:45 10° ENE daylight
01 Aug - 17:26:05 10° W 17:30:11 30° NNW 17:34:14 10° NE daylight
01 Aug - 19:10:38 10° NW 19:13:06 14° N 19:15:32 10° NNE daylight
01 Aug - 20:53:19 10° NNW 20:56:19 17° NNE 20:59:17 10° NE visible
01 Aug - 22:34:28 10° NW 22:38:52 52° NNE 22:43:12 10° ESE visible
02 Aug - 00:16:47 10° WNW 00:20:22 24° SW 00:23:55 10° S visible
02 Aug - 14:23:09 10° S 14:26:20 18° SE 14:29:29 10° E daylight
02 Aug - 16:03:03 10° WSW 16:07:43 71° NW 16:12:20 10° NE daylight
02 Aug - 17:46:41 10° WNW 17:50:06 20° NNW 17:53:29 10° NNE daylight
02 Aug - 19:30:57 10° NNW 19:33:16 14° N 19:35:33 10° NNE daylight
02 Aug - 21:12:36 10° NNW 21:16:18 24° NNE 21:19:58 10° ENE visible
02 Aug - 22:53:56 10° NW 22:58:26 76° SW 23:02:51 10° SE visible
03 Aug - 14:41:13 10° SSW 14:45:36 40° SE 14:49:56 10° ENE daylight
03 Aug - 16:23:03 10° W 16:27:23 37° NNW 16:31:41 10° NE daylight
03 Aug - 18:07:26 10° NW 18:10:09 15° N 18:12:52 10° NNE daylight
03 Aug - 19:50:39 10° NNW 19:53:24 16° N 19:56:08 10° NE daylight
03 Aug - 21:31:52 10° NW 21:36:08 40° NNE 21:40:20 10° E visible
03 Aug - 23:13:46 10° WNW 23:17:48 33° SW 23:21:47 10° SSE visible
04 Aug - 13:21:41 10° SSE 13:23:46 13° SE 13:25:51 10° ESE daylight
04 Aug - 15:00:18 10° SW 15:05:01 87° SE 15:09:40 10° NE daylight
04 Aug - 16:43:29 10° WNW 16:47:13 23° NNW 16:50:56 10° NNE daylight
04 Aug - 18:27:58 10° NNW 18:30:18 14° N 18:32:38 10° NNE daylight
04 Aug - 20:10:00 10° NNW 20:13:27 21° NNE 20:16:51 10° ENE visible
04 Aug - 21:51:14 10° NW 21:55:45 79° NE 22:00:13 10° SE visible
04 Aug - 23:34:34 10° W 23:37:01 15° SW 23:39:27 10° SSW visible
05 Aug - 13:38:55 10° SSW 13:42:58 29° SE 13:47:00 10° ENE daylight
05 Aug - 15:20:04 10° WSW 15:24:36 47° NNW 15:29:05 10° NE daylight
05 Aug - 17:04:12 10° NW 17:07:13 17° NNW 17:10:14 10° NNE daylight
05 Aug - 18:47:54 10° NNW 18:50:28 15° N 18:53:00 10° NE daylight
05 Aug - 20:29:15 10° NW 20:33:20 32° NNE 20:37:22 10° E visible
05 Aug - 22:10:52 10° WNW 22:15:12 47° SW 22:19:27 10° SSE visible
06 Aug - 13:57:39 10° SW 14:02:19 64° SE 14:06:56 10° ENE daylight
06 Aug - 15:40:19 10° W 15:44:22 28° NNW 15:48:21 10° NE daylight
06 Aug - 17:24:52 10° NW 17:27:20 14° N 17:29:48 10° NNE daylight
06 Aug - 19:07:22 10° NNW 19:10:33 18° NNE 19:13:42 10° ENE daylight
06 Aug - 20:48:33 10° NW 20:53:03 59° NE 20:57:27 10° ESE visible
06 Aug - 22:31:07 10° W 22:34:28 21° SW 22:37:46 10° S visible
07 Aug - 12:36:49 10° S 12:40:22 21° SE 12:43:53 10° E daylight
07 Aug - 14:17:09 10° WSW 14:21:49 62° NW 14:26:27 10° NE daylight
07 Aug - 16:00:57 10° WNW 16:04:18 19° NNW 16:07:37 10° NNE daylight
07 Aug - 17:45:03 10° NNW 17:47:30 14° N 17:49:55 10° NE daylight
07 Aug - 19:26:37 10° NW 19:30:30 26° NNE 19:34:20 10° E daylight
07 Aug - 21:08:03 10° WNW 21:12:33 66° SW 21:16:58 10° SE visible
08 Aug - 12:55:07 10° SSW 12:59:38 46° SE 13:04:08 10° ENE daylight
08 Aug - 14:37:13 10° W 14:41:31 34° NNW 14:45:46 10° NE daylight
08 Aug - 16:21:40 10° NW 16:24:22 15° N 16:27:03 10° NNE daylight
08 Aug - 18:04:40 10° NNW 18:07:37 16° NNE 18:10:32 10° NE daylight
08 Aug - 19:45:53 10° NW 19:50:17 45° NNE 19:54:36 10° ESE daylight
08 Aug - 21:27:59 10° WNW 21:31:53 29° SW 21:35:44 10° SSE visible
09 Aug - 11:35:03 10° SSE 11:37:46 15° SE 11:40:28 10° E daylight
09 Aug - 13:14:20 10° SW 13:19:04 83° NW 13:23:47 10° NE daylight
09 Aug - 14:57:42 10° WNW 15:01:22 22° NNW 15:05:01 10° NNE daylight
09 Aug - 16:42:05 10° NNW 16:44:31 14° N 16:46:55 10° NNE daylight
09 Aug - 18:23:59 10° NNW 18:27:38 23° NNE 18:31:13 10° ENE daylight
09 Aug - 20:05:17 10° NW 20:09:52 90° SW 20:14:22 10° SE visible
09 Aug - 21:49:10 10° WSW 21:51:03 12° SW 21:52:55 10° SSW visible
10 Aug - 11:52:43 10° SSW 11:56:58 34° SE 12:01:13 10° ENE daylight
10 Aug - 13:34:11 10° WSW 13:38:41 43° NNW 13:43:09 10° NE daylight
10 Aug - 15:18:25 10° NW 15:21:23 16° NNW 15:24:21 10° NNE daylight
10 Aug - 17:01:55 10° NNW 17:04:39 15° N 17:07:22 10° NE daylight
10 Aug - 18:43:14 10° NW 18:47:29 36° NNE 18:51:39 10° E daylight
10 Aug - 20:25:00 10° WNW 20:29:16 40° SW 20:33:27 10° SSE visible
